Warning: Javascript must be enabled to use all the features on this page!


Page Loading - Please Wait...

* We've detected you're using a mobile device. Find our Next Generation Station Page here.
Click to hideNews Bulletins

Peak Streamflow for the Nation

USGS 01390500 Saddle River at Ridgewood NJ

Bergen County, New Jersey
Hydrologic Unit Code 02030103
Latitude  40°59'06", Longitude  74°05'26" NAD83
Drainage area 21.6  square miles
Gage datum 71.74 feet above NGVD29
Output formats
Table
Graph
Tab-separated file
peakfq (watstore) format
Reselect output format
Water
Year
Date Gage
Height
(feet)
Stream-
flow
(cfs)
1936 1936-03-12 6.76  
1945 1945-07-23   6,8007
1955 1955-08-19 8.88 1,510
1956 1955-10-16 7.25 925
1957 1956-11-02 5.75 498
1958 1958-02-28 8.04 922
1959 1959-03-06 6.33 505
1960 1960-08-19 7.222 916
1961 1961-02-26 6.54 709
1962 1962-03-12 7.80 1,120
1963 1963-03-06 5.39 382
1964 1964-01-10 5.74 483
1965 1965-08-10 7.49 1,020
1966 1966-09-22 7.42 976
1967 1966-11-03 5.31 378
1968 1968-05-29 9.80 2,060
1969 1969-03-25 5.912 689
1970 1970-04-02 7.12 886
1971 1971-08-28 11.24 2,920
1972 1972-06-19 6.03 811
1973 1973-02-02 8.18 2,060
1974 1973-12-21 6.23 1,340
1975 1975-09-27 6.33 1,390
1976 1976-01-27 4.09 500
1977 1977-02-25 7.95 2,120
1978 1977-11-08 12.25 4,650
1979 1979-01-25 6.14 1,260
1980 1980-04-28 6.66 1,490
1981 1981-05-12 5.14 815
1982 1982-01-04 5.03 772
1983 1983-03-21 5.89 1,150
1984 1984-05-29 6.84 1,570
1985 1985-09-27 5.37 891
1986 1986-01-26 5.03 768
1987 1987-04-04 6.64 1,420
1988 1987-10-28 5.63 990
1989 1989-05-17 5.58 971
1990 1990-08-07 5.08 783
1991 1991-03-04 6.27 1,260
1992 1992-09-03 4.81 689
1993 1993-03-23 5.10 790
1994 1993-11-28 6.08 1,170
1995 1995-01-20 4.45 574
1996 1996-01-19 6.05 1,160
1997 1996-12-02 5.47 928
1998 1998-04-10 4.80 686
1999 1999-09-16 13.40 5,380
2000 2000-08-11 5.65 998
2001 2001-06-17 6.27 1,260
2002 2002-07-19 4.43 567
2003 2003-08-12 5.73 1,030
2004 2004-09-18 6.26 1,310
2005 2005-04-02 5.61 1,080
2006 2005-10-09 6.38 1,380
2007 2007-04-16 7.72 1,940
2008 2008-09-06 5.83 1,160
2009 2008-12-12 4.96 840
2010 2010-03-14 6.89 2,120
2011 2011-08-28 11.42 6,770
2012 2011-12-08 5.33 1,160
2013 2013-05-23 5.06 1,020
2014 2014-07-03 5.83 1,430
2015 2015-01-18 4.37 684
2016 2016-02-25 4.54 765
2017 2017-07-07 4.50 750
2018 2018-04-16 6.06 1,520
2019 2018-12-21 5.53 1,220
?
  Peak Gage-Height Qualification Codes.
?
  Peak Streamflow Qualification Codes.